Change the Weather History Date:

Thursday, September 29, 2011

  Actual Average Record
Temperature  
Mean Temperature 60 °F 58 °F  
Max Temperature 72 °F 70 °F 89 °F (2002)
Min Temperature 47 °F 46 °F 30 °F (2003)
Degree Days  
Heating Degree Days 5 8  
Month to date heating degree days 183 112  
Since 1 July heating degree days 183 126  
Cooling Degree Days 0 1  
Month to date cooling degree days 57 67  
Year to date cooling degree days 1003 771  
Growing Degree Days 8 (Base 50)    
Moisture  
Dew Point 44 °F    
Average Humidity 62    
Maximum Humidity 93    
Minimum Humidity 31    
Precipitation  
Precipitation 0.05 in 0.09 in 1.50 in (1972)
Month to date precipitation 2.63 2.97  
Year to date precipitation 26.53 28.79  
Snow  
Snow 0.00 in - - ()
Month to date snowfall 0.0  
Since 1 July snowfall 0.0  
Since 1 September snowfall 0.0  
Snow Depth 0.00 in    
Sea Level Pressure  
Sea Level Pressure 29.83 in    
Wind  
Wind Speed 13 mph (WNW)    
Max Wind Speed 38 mph    
Max Gust Speed 49 mph    
Visibility 8 miles    
Events Rain    
T = Trace of Precipitation, MM = Missing Value Source: NWS Daily Summary

Daily Weather History Graph

Daily Weather History Graph

Search for Another Location

Airport or City:

Trip Planner

Search our weather history database for the weather conditions in past years. The results will help you decide how hot, cold, wet, or windy it might be!

Date:

Astronomy

Sep. 29, 2011 Rise Set
Actual Time 6:56 AM CDT 6:47 PM CDT
Civil Twilight 6:29 AM CDT 7:15 PM CDT
Nautical Twilight 5:56 AM CDT 7:47 PM CDT
Astronomical Twilight 5:24 AM CDT 8:20 PM CDT
Moon 9:45 AM CDT (9/29) 7:57 PM CDT (9/29)
Length of Visible Light 12h 46m
Length of Day
11h 51m
Waxing Crescent, 7% of the Moon is Illuminated
Sep 29
Waxing Crescent
Oct 3
First Quarter
Oct 11
Full
Oct 19
Last Quarter
Oct 26
New

Hourly Weather History & Observations

Time (CDT) Temp. Dew Point Humidity Pressure Visibility Wind Dir Wind Speed Gust Speed Precip Events Conditions
12:52 AM 48.0 °F 46.0 °F 93% 29.83 in 6.0 mi Calm Calm - N/A   Clear
1:52 AM 46.9 °F 45.0 °F 93% 29.84 in 4.0 mi Calm Calm - N/A   Clear
3:52 AM 48.0 °F 44.1 °F 86% 29.81 in 5.0 mi Calm Calm - N/A   Clear
4:52 AM 48.0 °F 45.0 °F 89% 29.81 in 4.0 mi Calm Calm - N/A   Clear
5:52 AM 50.0 °F 46.9 °F 89% 29.81 in 6.0 mi South 3.5 mph - N/A   Clear
6:52 AM 55.0 °F 50.0 °F 83% 29.77 in 10.0 mi South 6.9 mph - N/A   Clear
7:52 AM 55.9 °F 51.1 °F 84% 29.77 in 8.0 mi WSW 6.9 mph - N/A   Clear
9:52 AM 63.0 °F 53.1 °F 70% 29.80 in 10.0 mi NW 10.4 mph - N/A   Mostly Cloudy
10:52 AM 64.0 °F 50.0 °F 60% 29.80 in 10.0 mi NW 12.7 mph 21.9 mph N/A   Overcast
11:52 AM 57.9 °F 52.0 °F 81% 29.85 in 7.0 mi WNW 12.7 mph - 0.04 in Rain Light Rain
3:52 PM 70.0 °F 37.0 °F 30% 29.75 in 10.0 mi WNW 24.2 mph 42.6 mph N/A   Mostly Cloudy
4:52 PM 69.1 °F 37.9 °F 32% 29.77 in 10.0 mi NW 24.2 mph 38.0 mph N/A   Mostly Cloudy
5:52 PM 64.9 °F 39.9 °F 40% 29.80 in 10.0 mi WNW 32.2 mph 41.4 mph N/A   Scattered Clouds
6:52 PM 62.1 °F 41.0 °F 46% 29.85 in 10.0 mi NW 25.3 mph 35.7 mph N/A   Overcast
7:52 PM 61.0 °F 42.1 °F 50% 29.85 in 10.0 mi NW 12.7 mph - N/A   Overcast
8:52 PM 60.1 °F 41.0 °F 49% 29.87 in 10.0 mi NW 19.6 mph 28.8 mph 0.00 in   Unknown
9:52 PM 59.0 °F 39.9 °F 49% 29.87 in 10.0 mi NW 20.7 mph 32.2 mph N/A   Scattered Clouds
10:52 PM 57.9 °F 39.9 °F 51% 29.91 in 10.0 mi NW 24.2 mph 39.1 mph N/A   Partly Cloudy
11:52 PM 55.9 °F 37.9 °F 51% 29.93 in 10.0 mi NW 15.0 mph - N/A   Clear